DW8522 Weather Reports


time (UTC)temp
C
wind
direction
speed
KPH
gust
KPH
rain 1hr
cm
rain 24hr
cm
rain mn
cm
humidity
%
barometer
mb
20260506034518 20 97 0.0 4.8 0.00 0.61 0.61 82 1028.2
20260506033006 20 113 1.6 4.8 0.00 0.61 0.61 82 1028.2
20260506031504 20 105 1.6 6.4 0.00 0.61 0.61 81 1028.2
20260506030011 20 101 1.6 4.8 0.00 0.61 0.61 83 1028.1
20260506024619 20 105 0.0 8.0 0.00 0.61 0.61 84 1028.1
20260506023057 20 98 1.6 6.4 0.00 0.61 0.61 82 1028.2
20260506021557 20 105 1.6 4.8 0.00 0.61 0.61 84 1028.2
20260506020052 20 117 0.0 6.4 0.00 0.61 0.61 84 1028.3
20260506014552 20 117 1.6 6.4 0.00 0.61 0.61 83 1028.4
20260506013102 20 108 1.6 6.4 0.00 0.61 0.61 84 1028.3
20260506011549 20 113 3.2 6.4 0.00 0.61 0.61 85 1028.4
20260506010042 20 121 1.6 4.8 0.00 0.61 0.61 90 1028.6
20260506004537 19 84 1.6 4.8 0.00 0.61 0.61 94 1028.9
20260506003035 18 110 0.0 4.8 0.00 0.61 0.61 96 1028.9
20260506001532 17 121 0.0 3.2 0.00 0.61 0.61 96 1029.3
20260506000028 17 120 0.0 3.2 0.03 0.61 0.61 95 1029.8
20260505234534 18 123 0.0 1.6 0.05 0.61 0.61 96 1029.8
20260505233026 17 122 0.0 3.2 0.05 0.61 0.61 96 1029.8
20260505231523 17 120 0.0 3.2 0.05 0.61 0.61 97 1029.9
20260505230038 17 119 0.0 1.6 0.05 0.61 0.61 97 1030.2
20260505224522 17 118 0.0 3.2 0.05 0.58 0.58 97 1030.3
20260505223019 16 118 0.0 1.6 0.03 0.56 0.56 97 1030.2
20260505221519 16 118 0.0 1.6 0.03 0.56 0.56 97 1030.3
20260505220016 16 119 0.0 3.2 0.00 0.53 0.53 97 1030.4
20260505214519 16 118 0.0 3.2 0.03 0.53 0.53 97 1030.3
20260505213014 16 120 0.0 1.6 0.10 0.53 0.53 97 1030.2
20260505211512 16 120 0.0 1.6 0.15 0.53 0.53 97 1030.3
20260505210010 15 120 0.0 3.2 0.23 0.53 0.53 97 1030.4
20260505204508 15 136 0.0 1.6 0.25 0.51 0.51 97 1030.5
20260505203008 15 136 0.0 1.6 0.23 0.43 0.43 97 1030.4
20260505201508 15 136 0.0 3.2 0.15 0.38 0.38 97 1030.4
20260505200006 15 135 0.0 0.0 0.10 0.33 0.33 97 1030.3
20260505194502 15 135 0.0 0.0 0.03 0.23 0.23 97 1030.1
20260505193100 15 136 0.0 1.6 0.00 0.23 0.23 97 1029.8
20260505191601 14 135 0.0 1.6 0.00 0.23 0.23 97 1029.7
20260505190057 14 135 1.6 3.2 0.05 0.23 0.23 96 1029.7
20260505184557 14 135 0.0 1.6 0.15 0.23 0.23 96 1029.8
20260505183102 14 135 0.0 1.6 0.18 0.23 0.23 96 1029.8
20260505181555 14 136 1.6 4.8 0.18 0.23 0.23 96 1029.7
20260505180053 14 143 0.0 1.6 0.13 0.15 0.15 96 1029.7
20260505174557 14 143 0.0 3.2 0.03 0.05 0.05 96 1029.7
20260505173053 13 142 0.0 4.8 0.00 0.05 0.05 96 1029.8
20260505171552 13 143 0.0 3.2 0.00 0.05 0.05 96 1029.6
20260505170051 13 142 1.6 3.2 0.00 0.05 0.05 96 1029.7
20260505164559 13 142 0.0 3.2 0.00 0.05 0.05 96 1029.7
20260505163056 13 142 0.0 3.2 0.00 0.05 0.05 96 1029.6
20260505161549 13 143 0.0 1.6 0.00 0.05 0.05 96 1029.6
20260505153055 13 142 1.6 4.8 0.00 0.05 0.05 95 1029.8
20260505151550 13 139 0.0 3.2 0.00 0.05 0.05 95 1029.9
20260505124525 14 143 1.6 4.8 0.00 0.00 0.00 90 1031.3
20260505123017 14 145 1.6 4.8 0.00 0.00 0.00 91 1031.3
20260505121513 14 149 0.0 4.8 0.00 0.00 0.00 91 1031.3
20260505120010 14 145 0.0 4.8 0.00 0.00 0.00 91 1031.4
20260505114517 13 148 1.6 3.2 0.00 0.00 0.00 91 1031.4
20260505113009 13 146 0.0 4.8 0.00 0.00 0.00 91 1031.4
20260505111508 13 149 0.0 3.2 0.00 0.00 0.00 91 1031.5
20260505101505 14 146 0.0 3.2 0.00 0.00 0.00 90 1032.0
20260505100006 14 143 0.0 3.2 0.00 0.00 0.00 90 1032.0
20260505094505 14 141 0.0 1.6 0.00 0.00 0.00 89 1031.9
20260505093003 15 142 0.0 3.2 0.00 0.00 0.00 89 1032.0
20260505091506 15 136 1.6 4.8 0.00 0.00 0.00 88 1032.0
20260505090002 15 134 0.0 3.2 0.00 0.00 0.00 88 1031.9
20260505084502 15 134 0.0 1.6 0.00 0.00 0.00 88 1031.9
20260505083100 15 134 0.0 3.2 0.00 0.00 0.00 88 1031.8
20260505081604 15 129 1.6 1.6 0.00 0.00 0.00 88 1031.8
20260505080059 15 128 0.0 1.6 0.00 0.00 0.00 88 1031.8
20260505074611 15 129 0.0 1.6 0.00 0.00 0.00 87 1031.9
20260505073102 15 129 0.0 1.6 0.00 0.00 0.00 86 1031.7
20260505071558 16 124 0.0 0.0 0.00 0.00 0.00 86 1031.6
20260505070057 16 122 0.0 1.6 0.00 0.00 0.00 85 1031.5
20260505064559 16 123 0.0 1.6 0.00 0.00 0.00 84 1031.5
20260505063059 16 123 0.0 1.6 0.00 0.00 0.00 83 1031.5
20260505061624 17 120 0.0 0.0 0.00 0.00 0.00 82 1031.4
20260505060055 17 120 0.0 3.2 0.00 0.00 0.00 81 1031.4
20260505054609 17 123 1.6 4.8 0.00 0.00 0.00 81 1031.4
20260505053055 17 120 0.0 3.2 0.00 0.00 0.00 80 1031.3
20260505051553 17 111 0.0 3.2 0.00 0.00 0.00 79 1031.4
20260505041551 18 124 0.0 4.8 0.00 0.00 0.00 75 1031.4
20260505040053 18 109 1.6 6.4 0.00 0.00 0.00 75 1031.4